Location: G�ndlingen
(48.0142°N, 7.6396°E)
Time: 18:33:09
(UTC+00:00)

Cosmos 1869 - Pass Details

Date: 05 July 2020
Orbit: 520 x 563 km, 82.5° (Epoch: 12 August)

Event Time Altitude Azimuth Distance (km) Brightness Sun altitude
Rises 22:00:49 0° 345° (NNW) 2,701 8.6 -16.3°
Reaches altitude 10° 22:03:00 10° 340° (NNW) 1,811 7.3 -16.4°
Maximum altitude 22:06:51 49° 266° (W) 710 3.9 -16.6°
Enters shadow 22:08:50 25° 203° (SSW) 1,116 4.5 -16.8°
